Regional Weather Roundup
Issued by NWS Wakefield, VA

Home | Current Version | Previous Version | Text Only | Print | Product List | Glossary Off
Versions: 1 2 3 4 5 6 7 8 9 10 11 12 13 14 15 16 17 18 19 20 21 22 23 24 25 26 27 28 29 30 31 32 33 34 35 36 37 38 39 40 41 42 43 44 45 46 47 48 49 50

000
ASUS41 KAKQ 211710
RWRAKQ

REGIONAL WEATHER ROUNDUP
NATIONAL WEATHER SERVICE WAKEFIELD VA
1200 PM EST FRI NOV 21 2014

Note: "fair" indicates few or no clouds below 12,000 feet with no
significant weather and/or obstructions to visibility. * = Denotes
station may not report precipitation (e.g., rain,snow,etc.),
thunder or fog.

VAZ042-051-052>054-056-211800-
NORTHERN VIRGINIA

CITY           SKY/WX    TMP DP  RH WIND       PRES   REMARKS
WASH NATIONAL  MOSUNNY   37   6  27 W18G28    30.46F
DULLES         SUNNY     33   8  35 NW13G23   30.45F WCI  24
FORT BELVOIR   MOSUNNY   35   6  29 NW20G25   30.46F WCI  25
QUANTICO       MOSUNNY   37   5  26 NW13G25   30.48F
FREDERICKSBRG* SUNNY     38   9  30 NW6G17    30.46F
STAFFORD*      NOT AVBL
WARRENTON      NOT AVBL
CULPEPER*      NOT AVBL
MANASSAS*      MOSUNNY   36   9  32 W13G18    30.47R
LEESBURG*      NOT AVBL
WINCHESTER     NOT AVBL
FRONT ROYAL*   SUNNY     32   7  34 W8        30.43F
LURAY*         NOT AVBL
$$

VAZ048-049-060>072-079>083-211800-
CENTRAL AND SOUTH CENTRAL VIRGINIA

CITY           SKY/WX    TMP DP  RH WIND       PRES   REMARKS
RICHMOND       MOSUNNY   41   7  24 NW12      30.45S
CHESTERFIELD*  SUNNY     41   9  26 NW9G16    30.46S
PETERSBURG*    NOT AVBL
HANOVER        SUNNY     39   9  29 W8        30.46F
TAPPAHANNOCK*  NOT AVBL
QUINTON*       FAIR      38  11  33 N7        30.45S
CHARLOTTSVILLE SUNNY     36   5  27 VRB7      30.43F
GORDONSVILLE*  SUNNY     35   6  28 CALM      30.44S
ORANGE*        NOT AVBL
LOUISA*        NOT AVBL
BUMPASS*       FAIR      37   7  29 NW6       30.45F
FARMVILLE*     NOT AVBL
CREWE*         SUNNY     39   8  27 NW8       30.44F
FORT PICKETT*  SUNNY     40  10  28 NW12      30.44F
LUNENBURG*     SUNNY     40  10  28 W3        30.43F
CHASE CITY*    FAIR      41  15  35 N3        30.45S
CLARKSVILLE*   FAIR      39  12  33 NW10      30.45S
SOUTH HILL*    NOT AVBL
LAWRENCEVILLE* SUNNY     41  10  27 NW7       30.44S
$$

VAZ088>098-211800-
SOUTHEAST VIRGINIA

CITY           SKY/WX    TMP DP  RH WIND       PRES   REMARKS
NORFOLK        SUNNY     41  12  30 NW8G21    30.43S
VIRGINIA BEACH MOSUNNY   43  18  36 NW18      30.42S
NORFOLK NAVAL  MOSUNNY   45  16  31 NW13      30.44F
WEST POINT*    NOT AVBL
SALUDA*        FAIR      37  14  37 NW14G21   30.44S
NEWPORT NEWS   SUNNY     44  15  31 N13       30.43F
LANGLEY AFB    SUNNY     41  15  35 NW17G23   30.43F
FORT EUSTIS    SUNNY     41  13  32 NW10      30.42F
WILLIAMSBURG*  NOT AVBL
HR EXEC AP*    SUNNY     41  16  36 NW10G18   30.45S
FRANKLIN*      NOT AVBL
WAKEFIELD      SUNNY     42  11  28 NW8       30.44S
$$

VAZ020-022-025-037-045-211800-
WEST CENTRAL AND SOUTHWEST VIRGINIA

CITY           SKY/WX    TMP DP  RH WIND       PRES   REMARKS
STAUNTON*      NOT AVBL
WAYNESBORO*    SUNNY     33   3  28 N9        30.38S
HOT SPRINGS VA SUNNY     25   2  37 W9        30.24R
LYNCHBURG      SUNNY     37   7  28 VRB7      30.44S
DANVILLE       SUNNY     42  13  30 VRB6      30.46F
SOUTH BOSTON*  SUNNY     41   6  24 NW12G17   30.46F
MARTINSVILLE   SUNNY     42  10  27 N3        30.46F
ROANOKE        SUNNY     38   7  27 W7        30.44S
BLACKSBURG     NOT AVBL
DUBLIN*        NOT AVBL
MARION*        NOT AVBL
HILLSVILLE*    NOT AVBL
RICHLANDS*     NOT AVBL
WISE*          SUNNY     34   5  29 N7        30.41S
ABINGDON*      NOT AVBL
$$

MDZ021>025-VAZ099-100-211800-
SOUTHERN MARYLAND AND THE DELMARVA PENINSULA

CITY           SKY/WX    TMP DP  RH WIND       PRES   REMARKS
PATUXENT RIVER MOSUNNY   37   8  30 NW16      30.44F
BAY BRIDGE APT   N/A     34   9  35 NW12G18   30.44S
LEONARDTOWN    SUNNY     36   7  30 NW5G17    30.45S
DOVER          SUNNY     35   8  32 NW17G25   30.37F WCI  25
GEORGETOWN     MOSUNNY   35   7  31 NW13G20   30.41S
EASTON         MOSUNNY   37  12  35 NW14G29   30.47S
CAMBRIDGE      MOSUNNY   36   9  32 NW10G23   30.43S
SALISBURY      SUNNY     38   7  27 NW18G26   30.42S
OCEAN CITY     MOSUNNY   35   8  32 N20G31    30.40S WCI  24
WALLOPS ISLAND MOSUNNY   37   9  31 NW21G30   30.42R
ACCOMACK*      NOT AVBL
$$

NCZ012>017-030>032-211800-
NORTH CENTRAL AND EASTERN NORTH CAROLINA

CITY           SKY/WX    TMP DP  RH WIND       PRES   REMARKS
ROANOKE RAPIDS NOT AVBL
RALEIGH        MOSUNNY   46  11  24 N8G21     30.43F
ELIZABETH CITY SUNNY     47  14  26 NW17      30.41F
AHOSKIE*       SUNNY     42  14  32 N7        30.43F
EDENTON*       NOT AVBL
CURRITUCK*     SUNNY     44  11  26 N13       30.42S
KILL DEVIL HLS NOT AVBL
MANTEO         NOT AVBL
CAPE HATTERAS  SUNNY     46  29  51 N8G20     30.38F
TARBORO*       NOT AVBL
GOLDSBORO      SUNNY     50  17  27 N12G20    30.40F
WASHINGTON     SUNNY     47  14  27 NW13      30.42S
GREENVILLE     NOT AVBL
NEW BERN       SUNNY     50  18  28 N16       30.42S
WILMINGTON     SUNNY     53  21  28 N10       30.40S
$$

VAZ048-211800-
ELSEWHERE

CITY           SKY/WX    TMP DP  RH WIND       PRES   REMARKS
HARRISBURG PA  MOSUNNY   33  10  38 NW17      30.39F WCI  22
BALTIMORE      MOSUNNY   34   8  33 W16G26    30.43S WCI  24
ANNAPOLIS      SUNNY     34  11  38 NW16G24   30.44S WCI  24
ANDREWS AFB    MOSUNNY   34   5  30 NW21G28   30.43F WCI  22
PHILADELPHIA   MOSUNNY   35   6  29 NW20G29   30.37F WCI  24
WILDWOOD NJ*   MOSUNNY   34   9  35 NW15G23   30.37S WCI  24
GREENSBORO     MOSUNNY   44  10  25 N12       30.41F
ROCKY MOUNT    SUNNY     48   9  20 NW16      30.43F
$$

VAZ100-211800-
MARINE

STATION/POSITION TIME  TEMP    WIND        PRES    WAVE   SWELL
                       AIR SEA DIR/SP/G            HT/PER HT/PER
                 (UTC) (F)     (DEG/KT/KT) (MB)    (FT/S) (FT/S)
CAPE MAY NJ      1700   33 42  310/ 17/ 21 1028.5R
LEWES DE         1700   33 45  310/ 21/ 25 1029.1S
15NM E FENWICK I 1700   34 54              1028.4R   6/ 5
OCEAN-CITY-INLET 1700   34 49  330/ 20/ 25 1028.9F
WACHAPREAGUE VA  1700   38 42  330/  8/ 16 1029.9F
THOMAS POINT MD  1700   33 48  320/ 10/ 12 1032.0R
GOOSES REEF MD   1700   34     320/ 19/ 25 1031.3F
COVE POINT MD    1700   33     360/ 19/ 23 1030.7S
SOLOMONS ISLAND  1700      49                N/A
BISHOPS HEAD MD  1700   33 40  300/ 15/ 20 1030.3F
PINEY POINT MD   1700          330/ 16/ 18   N/A
POTOMAC MD       1700   36     320/ 17/ 23 1030.2R
CAMBRIDGE MD     1700   33 42  310/ 14/ 19 1030.4F
LEWISETTA VA     1700   35 44  310/ 21/ 29 1031.2R
RAPPAHANNOCK LGT 1700          320/ 24/ 27 1030.7F
STINGRAY PT      1700   38     330/ 16/ 19 1030.8R
YORK RVR RNG VA  1700   38     340/ 15/ 18 1029.9F
YORKTOWN VA      1700   38 51  320/ 17/ 21 1030.3F
JAMESTOWN VA     1700   38     360/ 14/ 17   N/A
DOMINION TERM VA 1700   39     310/ 13/ 17 1030.4F
KIPTOPEKE VA     1700      52  340/ 20/ 25   N/A
CHES BAY BRIDGE  1700   38 51  310/ 17/ 21 1029.9S
CAPE HENRY VA    1700   37     330/ 21/ 24 1028.8F
CHESAPEAKE LGHT  1600   38     340/ 27/ 30 1029.7S
WILLOUBY STN VA  1700   38     330/ 14/ 17 1029.0F
S CRANEY ISL VA  1700          290/  9/ 13 1030.2F
CAPE HENRY BUOY  1700      55                N/A     5/ 4
1ST LANDING BUOY 1700   39     330/ 17/ 21 1029.8S
CAPE CHARLES BUO 1700      54                N/A     3/ 3   2/ 8
64NM E OF VA BCH 1700   42 61  330/ 21/ 27 1028.1F   7/ 7
DUCK PIER NC     1700   41 55  330/ 19/ 21 1028.5S
44100 DUCK FRF   1700      58                N/A     6/ 6
44056 DUCK FRF   1700      56                N/A     5/ 6
OREGON INLET NC  1700   44 48  320/ 16/ 20 1029.0S
HATTERAS NC      1700   45 52   10/ 16/ 21 1029.0S
CAPE LOOKOUT NC  1600   48     360/ 15/ 19 1029.0R
$$



USA.gov is the U.S. government's official web portal to all federal, state and local government web resources and services.